SCP
0 0 0 0 0 0 0 0 0 0 0 0 0 0 0 0 0 0 0 0 0 0 0 0 0 0 0 0 0 0 0 0 0 0 0 0 0 0 0 0 0 0 0 0
0 0 0 0 0 0 0 0 0 0 0 0 0 0 0 0 0 0 0 0 0 0 0 0 0 0 0 0 0 0 0 0 0 0 0 0 0 0 0 0 0 0 0 0
0 0 0 0 0 0 0 0 0 0 0 0 0 0 0 0 0 0 0 0 0 0 0 0 0 0 0 0 0 0 0 0 0 0 0 0 0 0 0 0 0 0 0 0
0 0 0 0 0 0 0 0 0 0 0 0 0 0 0 0 0 0 0 0 0 0 0 0 0 0 0 0 0 0 0 0 0 0 0 0 0 0 0 0 0 0 0 0
0 0 0 0 0 0 0 0 0 0 0 0 0 0 0 0 0 0 0 0 0 0 0 0 0 0 0 0 0 0 0 0 0 0 0 0 0 0 0 0 0 0 0 0
0 0 0 0 0 0 0 0 0 0 0 0 0 0 0 0 0 0 0 0 0 0 0 0 0 0 0 0 0 0 0 0 0 0 0 0 0 0 0 0 0 0 0 0
0 0 0 0 0 0 0 0 0 0 0 0 0 0 0 0 0 0 0 0 0 0 0 0 0 0 0 0 0 0 0 0 0 0 0 0 0 0 0 0 0 0 0 0
0 0 0 0 0 0 0 0 0 0 0 0 0 0 0 0 0 0 0 0 0 0 0 0 0 0 0 0 0 0 0 0 0 0 0 0 0 0 0 0 0 0 0 0
0 0 0 0 0 0 0 0 0 0 0 0 0 0 0 0 0 0 0 0 0 0 0 0 0 0 0 0 0 0 0 0 0 0 0 0 0 0 0 0 0 0 0 0
0 0 0 0 0 0 0 0 0 0 0 0 0 0 0 0 0 0 0 0 0 0 0 0 0 0 0 0 0 0 0 0 0 0 0 0 0 0 0 0 0 0 0 0
0 0 0 0 0 0 0 0 0 0 0 0 0 0 0 0 0 0 0 0 0 0 0 0 0 0 0 0 0 0 0 0 0 0 0 0 0 0 0 0 0 0 0 0
0 0 0 0 0 0 0 0 0 0 0 0 0 0 0 0 0 0 0 0 0 0 0 0 0 0 0 0 0 0 0 0 0 0 0 0 0 0 0 0 0 0 0 0
0 0 0 0 0 0 0 0 0 0 0 0 0 0 0 0 0 0 0 0 0 0 0 0 0 0 0 0 0 0 0 0 0 0 0 0 0 0 0 0 0 0 0 0
0 0 0 0 0 0 0 0 0 0 0 0 0 0 0 0 0 0 0 0 0 0 0 0 0 0 0 0 0 0 0 0 0 0 0 0 0 0 0 0 0 0 0 0
0 0 0 0 0 0 0 0 0 0 0 0 0 0 0 0 0 0 0 0 0 0 0 0 0 0 0 0 0 0 0 0 0 0 0 0 0 0 0 0 0 0 0 0
0 0 0 0 0 0 0 0 0 0 0 0 0 0 0 0 0 0 0 0 0 0 0 0 0 0 0 0 0 0 0 0 0 0 0 0 0 0 0 0 0 0 0 0
0 0 0 0 0 0 0 0 0 0 0 0 0 0 0 0 0 0 0 0 0 0 0 0 0 0 0 0 0 0 0 0 0 0 0 0 0 0 0 0 0 0 0 0
0 0 0 0 0 0 0 0 0 0 0 0 0 0 0 0 0 0 0 0 0 0 0 0 0 0 0 0 0 0 0 0 0 0 0 0 0 0 0 0 0 0 0 0
0 0 0 0 0 0 0 0 0 0 0 0 0 0 0 0 0 0 0 0 0 0 0 0 0 0 0 0 0 0 0 0 0 0 0 0 0 0 0 0 0 0 0 0
0 0 0 0 0 0 0 0 0 0 0 0 0 0 0 0 0 0 0 0 0 0 0 0 0 0 0 0 0 0 0 0 0 0 0 0 0 0 0 0 0 0 0 0
0 0 0 0 0 0 0 0 0 0 0 0 0 0 0 0 0 0 0 0 0 0 0 0 0 0 0 0 0 0 0 0 0 0 0 0 0 0 0 0 0 0 0 0
0 0 0 0 0 0 0 0 0 0 0 0 0 0 0 0 0 0 0 0 0 0 0 0 0 0 0 0 0 0 0 0 0 0 0 0 0 0 0 0 0 0 0 0
0 0 0 0 0 0 0 0 0 0 0 0 0 0 0 0 0 0 0 0 0 0 0 0 0 0 0 0 0 0 0 0 0 0 0 0 0 0 0 0 0 0 0 0
0 0 0 0 0 0 0 0 0 0 0 0 0 0 0 0 0 0 0 0 0 0 0 0 0 0 0 0 0 0 0 0 0 0 0 0 0 0 0 0 0 0 0 0
0 0 0 0 0 0 0 0 0 0 0 0 0 0 0 0 0 0 0 0 0 0 0 0 0 0 0 0 0 0 0 0 0 0 0 0 0 0 0 0 0 0 0 0
0 0 0 0 0 0 0 0 0 0 0 0 0 0 0 0 0 0 0 0 0 0 0 0 0 0 -0 -0 0 0 0 0 0 0 0 0 0 0 0 0 0 0 0 0
0 0 0 0 0 0 0 0 0 0 0 0 0 0 0 0 0 0 0 0 0 0 0 0 0 0 0 -0 0 0 0 0 0 0 0 0 0 0 0 0 0 0 0 0
Wind_Speed_500mb
14 16 8 15 13 17 19 16 19 36 19 32 24 15 42 47 37 45 47 45 48 49 65 66 64 65 68 67 65 62 62 62 60 53 49 48 48 45 42 39 35 35 35 33
9 12 17 21 21 22 26 19 24 28 33 39 58 55 27 32 29 36 39 28 32 38 46 62 59 58 61 64 64 63 64 65 60 56 53 53 50 47 46 43 39 38 37 36
12 8 9 21 28 30 20 14 20 21 39 28 17 24 27 25 17 28 33 29 29 29 29 44 56 54 55 54 58 62 65 63 62 58 58 56 52 51 50 47 42 41 39 38
6 5 14 20 3 14 21 31 23 25 19 24 27 23 23 24 19 32 30 27 25 30 31 26 39 57 56 56 57 59 63 64 61 60 60 57 55 55 51 48 47 43 41 39
8 11 20 28 25 14 16 40 20 33 28 30 27 15 22 20 20 34 27 26 30 29 29 27 28 33 49 56 57 60 64 65 62 60 59 59 59 57 52 52 49 46 42 40
7 8 14 12 7 5 6 16 27 32 19 19 16 2 8 7 10 15 15 20 26 26 28 27 21 25 35 45 54 61 61 61 60 59 59 61 59 57 53 53 50 47 46 43
20 13 16 18 16 11 6 15 8 17 17 28 10 14 4 6 4 9 14 18 24 29 30 29 28 28 34 38 47 42 48 53 57 57 58 58 58 59 56 55 53 52 50 45
6 6 23 27 15 19 15 7 12 15 18 24 15 11 14 16 10 9 15 20 26 31 33 33 32 33 35 42 36 38 42 47 52 55 57 59 61 61 60 59 58 56 53 49
20 17 13 38 26 37 38 17 21 23 21 25 22 20 19 24 27 23 25 29 32 39 40 38 38 36 39 37 36 39 45 49 51 53 57 60 62 62 64 63 62 60 57 54
6 16 32 41 48 46 32 37 30 30 29 31 34 29 29 27 29 33 34 37 42 49 52 52 41 43 44 40 40 44 48 50 51 55 57 60 63 64 65 66 66 64 61 57
13 17 26 42 60 55 42 45 45 41 40 40 33 31 31 30 30 32 39 46 51 54 57 57 49 48 48 48 46 48 51 54 55 56 59 62 64 66 66 64 62 61 58 52
17 26 33 43 56 45 44 43 43 44 36 29 31 35 35 35 34 39 48 55 59 58 53 59 61 59 55 52 50 51 54 56 57 60 60 62 64 66 64 63 59 58 56 55
48 36 45 31 28 35 33 30 29 35 39 39 40 36 35 37 41 49 56 59 61 64 66 67 70 69 62 51 47 51 57 59 56 56 59 63 65 67 67 61 61 58 57 57
83 69 53 63 58 62 55 46 43 47 45 42 41 38 37 41 46 52 56 57 56 59 62 63 64 67 62 53 49 49 53 58 64 63 60 55 60 65 66 65 61 60 55 55
56 62 82 82 71 65 55 50 48 46 42 37 37 36 39 41 44 46 46 47 49 53 58 58 59 61 52 48 52 50 49 55 60 65 66 64 56 57 63 66 64 58 54 53
78 90 92 96 85 66 52 48 51 48 47 48 44 38 35 36 36 39 40 45 50 51 53 57 59 58 52 47 47 49 48 49 55 58 63 67 68 62 61 64 66 64 58 55
73 78 79 68 73 71 66 65 68 59 48 40 36 34 32 32 37 39 42 43 46 48 50 51 55 53 51 47 46 47 44 45 47 52 59 61 65 66 66 63 64 67 61 53
86 87 81 78 63 74 58 50 47 42 37 36 32 30 31 33 36 38 40 43 47 46 43 44 45 48 49 47 46 44 42 42 44 47 53 57 59 61 63 65 64 65 62 54
97 85 73 70 63 52 53 53 45 37 34 34 31 27 27 25 28 33 37 40 44 47 44 44 46 46 45 41 44 44 39 41 45 48 50 55 58 61 62 62 63 65 62 58
77 79 78 65 58 59 54 42 36 34 30 28 25 20 22 20 23 27 31 37 39 43 46 47 48 47 47 45 40 47 48 43 45 49 53 57 60 61 61 61 59 62 63 61
58 61 71 65 56 46 36 33 33 29 26 23 20 20 23 28 32 34 35 41 41 46 50 51 50 51 49 45 42 44 50 52 52 52 54 58 60 62 61 60 60 58 62 61
46 55 58 60 50 42 38 35 30 27 25 24 22 23 29 32 35 38 35 39 43 47 53 51 50 52 53 48 48 47 47 51 54 55 57 56 59 61 62 60 61 57 59 60
43 48 57 50 42 37 33 29 30 26 24 25 24 24 29 30 34 40 47 43 47 49 52 54 56 51 50 53 48 45 46 48 49 53 53 52 54 56 58 59 58 54 54 57
49 53 47 42 39 34 30 28 26 23 21 23 22 20 23 28 30 27 36 40 44 48 49 52 54 52 48 47 47 46 43 44 45 46 47 46 47 47 52 53 56 50 48 51
47 45 43 41 36 30 25 25 24 24 21 17 16 16 19 23 31 32 37 40 43 46 47 48 52 54 52 49 46 43 41 41 39 36 37 39 41 42 44 45 48 47 43 46
50 45 39 33 27 27 25 26 23 19 15 15 12 12 14 18 23 27 31 32 34 38 45 51 54 54 51 47 41 38 35 31 27 27 29 31 33 35 37 38 38 43 38 41
40 37 34 31 30 27 26 24 23 19 17 14 11 13 16 19 23 27 31 35 40 42 45 50 53 53 49 48 40 39 33 26 23 24 24 26 31 30 30 29 32 37 36 37
Wind_Direction_500mb
249 243 229 219 209 185 191 209 207 266 221 254 272 260 290 305 310 312 310 304 295 279 256 248 247 248 247 247 247 247 245 245 246 246 246 248 248 250 254 258 264 270 274 278
262 242 223 264 213 219 222 230 254 263 273 259 276 282 275 296 322 331 328 319 322 306 271 252 252 255 254 251 250 247 245 247 248 246 244 245 248 251 253 257 261 266 272 276
258 267 293 277 231 222 225 201 218 227 248 272 257 249 270 295 309 333 336 325 309 320 308 271 259 263 262 262 255 250 249 249 249 246 245 245 248 250 253 257 261 263 268 273
228 15 242 250 191 214 219 249 215 262 267 249 245 262 270 273 284 322 321 323 326 315 299 295 274 268 267 262 258 254 251 251 250 247 245 246 247 250 253 255 259 263 266 271
175 212 292 296 275 188 182 268 203 230 247 254 249 260 281 233 285 312 312 324 326 323 323 301 283 269 268 264 261 257 253 253 252 250 248 247 247 250 253 254 258 262 266 268
141 201 243 240 279 208 131 278 245 213 235 191 171 103 259 202 330 5 356 338 341 343 336 327 311 278 267 265 263 261 261 261 259 255 253 252 252 252 253 255 259 261 262 266
219 240 277 243 221 142 216 256 298 211 200 171 178 203 203 214 312 3 18 17 3 359 355 343 326 298 280 273 269 280 275 269 264 260 257 257 256 254 253 253 256 259 262 264
108 201 269 192 110 181 213 231 205 200 208 203 212 243 267 242 268 310 337 350 347 346 347 346 339 326 307 288 299 284 275 269 264 261 258 256 255 253 252 251 254 257 260 263
186 205 235 190 213 216 244 249 225 231 232 224 231 248 266 259 256 277 307 325 331 330 329 333 330 323 315 322 296 286 277 271 266 262 259 256 255 254 252 251 253 256 259 262
103 220 239 235 231 235 243 235 238 238 235 228 240 248 257 262 265 275 294 308 317 318 317 316 318 314 314 310 300 284 276 273 270 263 260 256 255 253 251 251 252 255 258 261
258 276 270 261 250 251 251 246 247 239 234 245 246 252 265 274 276 279 293 303 309 309 310 308 309 303 308 306 297 288 281 273 269 266 262 259 256 255 255 256 257 260 263 265
231 206 220 245 250 248 238 241 244 237 221 225 245 260 263 267 274 284 290 296 298 298 294 294 294 294 294 298 292 285 279 276 272 269 265 263 259 257 255 257 257 256 257 257
237 241 246 251 240 227 233 240 242 226 229 238 248 238 242 257 271 282 289 292 292 292 290 289 289 290 289 293 293 287 279 276 273 267 265 265 262 258 256 254 257 257 254 254
240 246 251 251 245 249 251 243 239 237 236 232 233 238 253 269 279 285 288 289 291 292 293 293 291 287 284 285 285 287 284 278 272 267 262 259 262 263 260 257 255 256 255 252
231 241 247 251 254 251 247 244 233 230 231 237 250 256 265 275 283 290 293 296 298 299 299 299 295 292 291 281 276 274 276 278 277 274 268 263 258 255 259 259 257 255 252 248
233 239 246 248 247 242 235 230 236 237 246 249 253 261 272 279 285 289 296 302 305 305 307 307 303 302 296 283 276 274 277 277 277 271 269 267 263 257 251 254 256 253 249 247
226 232 232 237 237 237 232 243 258 256 241 240 252 262 269 277 286 292 295 298 300 303 307 312 308 305 297 286 275 271 277 276 275 270 265 264 265 262 260 256 255 255 253 250
239 244 244 242 246 248 242 240 228 227 238 252 255 259 272 283 292 299 303 304 305 304 309 310 309 305 303 291 279 273 273 276 274 270 268 263 260 262 261 260 257 255 253 250
240 244 242 247 254 256 247 230 222 231 237 245 249 262 278 292 301 304 305 308 313 312 311 312 311 310 305 298 287 273 267 273 274 268 268 269 263 260 258 256 256 254 253 248
241 241 245 246 245 235 212 215 224 230 232 244 255 265 281 297 305 310 316 321 330 320 315 311 309 311 311 302 286 277 272 266 270 272 268 265 265 264 263 260 255 253 252 249
249 236 234 227 207 202 211 220 214 213 224 239 262 275 288 301 304 305 313 317 329 325 322 322 320 314 309 309 298 284 277 273 268 269 270 268 267 264 262 261 257 252 251 248
238 229 216 198 198 201 203 200 207 212 229 246 261 276 288 298 305 307 316 322 324 326 324 326 321 315 310 307 306 299 287 279 272 267 266 266 265 264 264 261 259 253 250 248
212 203 192 191 198 197 195 200 210 217 236 243 255 277 284 300 314 316 315 320 323 324 324 326 324 321 314 309 307 300 290 280 274 270 269 268 268 266 265 264 261 256 250 247
184 183 185 183 180 186 201 216 228 240 244 246 268 283 297 303 314 320 317 324 320 318 325 327 326 324 319 313 307 302 295 287 280 274 270 270 267 266 264 263 261 255 248 245
178 179 180 180 188 200 209 221 221 233 233 244 264 280 296 308 318 328 322 322 321 323 330 335 333 329 326 322 318 311 303 295 285 276 270 268 269 267 264 261 260 254 246 245
174 178 188 196 206 211 208 210 221 222 226 247 254 279 302 308 317 322 322 321 323 327 333 338 341 338 334 329 325 320 318 315 300 284 279 275 271 268 264 260 255 251 240 240
177 184 194 205 209 208 209 204 205 215 228 237 247 270 292 305 314 321 329 336 340 342 344 345 346 345 342 335 335 334 321 314 307 301 292 282 273 268 261 258 252 247 235 233
Wind_Speed_850mb
14 16 8 15 13 17 19 16 19 36 19 32 24 15 42 47 37 45 47 45 48 49 65 66 64 65 68 67 65 62 62 62 60 53 49 48 48 45 42 39 35 35 35 33
9 12 17 21 21 22 26 19 24 28 33 39 58 55 27 32 29 36 39 28 32 38 46 62 59 58 61 64 64 63 64 65 60 56 53 53 50 47 46 43 39 38 37 36
12 8 9 21 28 30 20 14 20 21 39 28 17 24 27 25 17 28 33 29 29 29 29 44 56 54 55 54 58 62 65 63 62 58 58 56 52 51 50 47 42 41 39 38
6 5 14 20 3 14 21 31 23 25 19 24 27 23 23 24 19 32 30 27 25 30 31 26 39 57 56 56 57 59 63 64 61 60 60 57 55 55 51 48 47 43 41 39
8 11 20 28 25 14 16 40 20 33 28 30 27 15 22 20 20 34 27 26 30 29 29 27 28 33 49 56 57 60 64 65 62 60 59 59 59 57 52 52 49 46 42 40
7 8 14 12 7 5 6 16 27 32 19 19 16 2 8 7 10 15 15 20 26 26 28 27 21 25 35 45 54 61 61 61 60 59 59 61 59 57 53 53 50 47 46 43
20 13 16 18 16 11 6 15 8 17 17 28 10 14 4 6 4 9 14 18 24 29 30 29 28 28 34 38 47 42 48 53 57 57 58 58 58 59 56 55 53 52 50 45
6 6 23 27 15 19 15 7 12 15 18 24 15 11 14 16 10 9 15 20 26 31 33 33 32 33 35 42 36 38 42 47 52 55 57 59 61 61 60 59 58 56 53 49
20 17 13 38 26 37 38 17 21 23 21 25 22 20 19 24 27 23 25 29 32 39 40 38 38 36 39 37 36 39 45 49 51 53 57 60 62 62 64 63 62 60 57 54
6 16 32 41 48 46 32 37 30 30 29 31 34 29 29 27 29 33 34 37 42 49 52 52 41 43 44 40 40 44 48 50 51 55 57 60 63 64 65 66 66 64 61 57
13 17 26 42 60 55 42 45 45 41 40 40 33 31 31 30 30 32 39 46 51 54 57 57 49 48 48 48 46 48 51 54 55 56 59 62 64 66 66 64 62 61 58 52
17 26 33 43 56 45 44 43 43 44 36 29 31 35 35 35 34 39 48 55 59 58 53 59 61 59 55 52 50 51 54 56 57 60 60 62 64 66 64 63 59 58 56 55
48 36 45 31 28 35 33 30 29 35 39 39 40 36 35 37 41 49 56 59 61 64 66 67 70 69 62 51 47 51 57 59 56 56 59 63 65 67 67 61 61 58 57 57
83 69 53 63 58 62 55 46 43 47 45 42 41 38 37 41 46 52 56 57 56 59 62 63 64 67 62 53 49 49 53 58 64 63 60 55 60 65 66 65 61 60 55 55
56 62 82 82 71 65 55 50 48 46 42 37 37 36 39 41 44 46 46 47 49 53 58 58 59 61 52 48 52 50 49 55 60 65 66 64 56 57 63 66 64 58 54 53
78 90 92 96 85 66 52 48 51 48 47 48 44 38 35 36 36 39 40 45 50 51 53 57 59 58 52 47 47 49 48 49 55 58 63 67 68 62 61 64 66 64 58 55
73 78 79 68 73 71 66 65 68 59 48 40 36 34 32 32 37 39 42 43 46 48 50 51 55 53 51 47 46 47 44 45 47 52 59 61 65 66 66 63 64 67 61 53
86 87 81 78 63 74 58 50 47 42 37 36 32 30 31 33 36 38 40 43 47 46 43 44 45 48 49 47 46 44 42 42 44 47 53 57 59 61 63 65 64 65 62 54
97 85 73 70 63 52 53 53 45 37 34 34 31 27 27 25 28 33 37 40 44 47 44 44 46 46 45 41 44 44 39 41 45 48 50 55 58 61 62 62 63 65 62 58
77 79 78 65 58 59 54 42 36 34 30 28 25 20 22 20 23 27 31 37 39 43 46 47 48 47 47 45 40 47 48 43 45 49 53 57 60 61 61 61 59 62 63 61
58 61 71 65 56 46 36 33 33 29 26 23 20 20 23 28 32 34 35 41 41 46 50 51 50 51 49 45 42 44 50 52 52 52 54 58 60 62 61 60 60 58 62 61
46 55 58 60 50 42 38 35 30 27 25 24 22 23 29 32 35 38 35 39 43 47 53 51 50 52 53 48 48 47 47 51 54 55 57 56 59 61 62 60 61 57 59 60
43 48 57 50 42 37 33 29 30 26 24 25 24 24 29 30 34 40 47 43 47 49 52 54 56 51 50 53 48 45 46 48 49 53 53 52 54 56 58 59 58 54 54 57
49 53 47 42 39 34 30 28 26 23 21 23 22 20 23 28 30 27 36 40 44 48 49 52 54 52 48 47 47 46 43 44 45 46 47 46 47 47 52 53 56 50 48 51
47 45 43 41 36 30 25 25 24 24 21 17 16 16 19 23 31 32 37 40 43 46 47 48 52 54 52 49 46 43 41 41 39 36 37 39 41 42 44 45 48 47 43 46
50 45 39 33 27 27 25 26 23 19 15 15 12 12 14 18 23 27 31 32 34 38 45 51 54 54 51 47 41 38 35 31 27 27 29 31 33 35 37 38 38 43 38 41
40 37 34 31 30 27 26 24 23 19 17 14 11 13 16 19 23 27 31 35 40 42 45 50 53 53 49 48 40 39 33 26 23 24 24 26 31 30 30 29 32 37 36 37
Wind_Direction_850mb
249 243 229 219 209 185 191 209 207 266 221 254 272 260 290 305 310 312 310 304 295 279 256 248 247 248 247 247 247 247 245 245 246 246 246 248 248 250 254 258 264 270 274 278
262 242 223 264 213 219 222 230 254 263 273 259 276 282 275 296 322 331 328 319 322 306 271 252 252 255 254 251 250 247 245 247 248 246 244 245 248 251 253 257 261 266 272 276
258 267 293 277 231 222 225 201 218 227 248 272 257 249 270 295 309 333 336 325 309 320 308 271 259 263 262 262 255 250 249 249 249 246 245 245 248 250 253 257 261 263 268 273
228 15 242 250 191 214 219 249 215 262 267 249 245 262 270 273 284 322 321 323 326 315 299 295 274 268 267 262 258 254 251 251 250 247 245 246 247 250 253 255 259 263 266 271
175 212 292 296 275 188 182 268 203 230 247 254 249 260 281 233 285 312 312 324 326 323 323 301 283 269 268 264 261 257 253 253 252 250 248 247 247 250 253 254 258 262 266 268
141 201 243 240 279 208 131 278 245 213 235 191 171 103 259 202 330 5 356 338 341 343 336 327 311 278 267 265 263 261 261 261 259 255 253 252 252 252 253 255 259 261 262 266
219 240 277 243 221 142 216 256 298 211 200 171 178 203 203 214 312 3 18 17 3 359 355 343 326 298 280 273 269 280 275 269 264 260 257 257 256 254 253 253 256 259 262 264
108 201 269 192 110 181 213 231 205 200 208 203 212 243 267 242 268 310 337 350 347 346 347 346 339 326 307 288 299 284 275 269 264 261 258 256 255 253 252 251 254 257 260 263
186 205 235 190 213 216 244 249 225 231 232 224 231 248 266 259 256 277 307 325 331 330 329 333 330 323 315 322 296 286 277 271 266 262 259 256 255 254 252 251 253 256 259 262
103 220 239 235 231 235 243 235 238 238 235 228 240 248 257 262 265 275 294 308 317 318 317 316 318 314 314 310 300 284 276 273 270 263 260 256 255 253 251 251 252 255 258 261
258 276 270 261 250 251 251 246 247 239 234 245 246 252 265 274 276 279 293 303 309 309 310 308 309 303 308 306 297 288 281 273 269 266 262 259 256 255 255 256 257 260 263 265
231 206 220 245 250 248 238 241 244 237 221 225 245 260 263 267 274 284 290 296 298 298 294 294 294 294 294 298 292 285 279 276 272 269 265 263 259 257 255 257 257 256 257 257
237 241 246 251 240 227 233 240 242 226 229 238 248 238 242 257 271 282 289 292 292 292 290 289 289 290 289 293 293 287 279 276 273 267 265 265 262 258 256 254 257 257 254 254
240 246 251 251 245 249 251 243 239 237 236 232 233 238 253 269 279 285 288 289 291 292 293 293 291 287 284 285 285 287 284 278 272 267 262 259 262 263 260 257 255 256 255 252
231 241 247 251 254 251 247 244 233 230 231 237 250 256 265 275 283 290 293 296 298 299 299 299 295 292 291 281 276 274 276 278 277 274 268 263 258 255 259 259 257 255 252 248
233 239 246 248 247 242 235 230 236 237 246 249 253 261 272 279 285 289 296 302 305 305 307 307 303 302 296 283 276 274 277 277 277 271 269 267 263 257 251 254 256 253 249 247
226 232 232 237 237 237 232 243 258 256 241 240 252 262 269 277 286 292 295 298 300 303 307 312 308 305 297 286 275 271 277 276 275 270 265 264 265 262 260 256 255 255 253 250
239 244 244 242 246 248 242 240 228 227 238 252 255 259 272 283 292 299 303 304 305 304 309 310 309 305 303 291 279 273 273 276 274 270 268 263 260 262 261 260 257 255 253 250
240 244 242 247 254 256 247 230 222 231 237 245 249 262 278 292 301 304 305 308 313 312 311 312 311 310 305 298 287 273 267 273 274 268 268 269 263 260 258 256 256 254 253 248
241 241 245 246 245 235 212 215 224 230 232 244 255 265 281 297 305 310 316 321 330 320 315 311 309 311 311 302 286 277 272 266 270 272 268 265 265 264 263 260 255 253 252 249
249 236 234 227 207 202 211 220 214 213 224 239 262 275 288 301 304 305 313 317 329 325 322 322 320 314 309 309 298 284 277 273 268 269 270 268 267 264 262 261 257 252 251 248
238 229 216 198 198 201 203 200 207 212 229 246 261 276 288 298 305 307 316 322 324 326 324 326 321 315 310 307 306 299 287 279 272 267 266 266 265 264 264 261 259 253 250 248
212 203 192 191 198 197 195 200 210 217 236 243 255 277 284 300 314 316 315 320 323 324 324 326 324 321 314 309 307 300 290 280 274 270 269 268 268 266 265 264 261 256 250 247
184 183 185 183 180 186 201 216 228 240 244 246 268 283 297 303 314 320 317 324 320 318 325 327 326 324 319 313 307 302 295 287 280 274 270 270 267 266 264 263 261 255 248 245
178 179 180 180 188 200 209 221 221 233 233 244 264 280 296 308 318 328 322 322 321 323 330 335 333 329 326 322 318 311 303 295 285 276 270 268 269 267 264 261 260 254 246 245
174 178 188 196 206 211 208 210 221 222 226 247 254 279 302 308 317 322 322 321 323 327 333 338 341 338 334 329 325 320 318 315 300 284 279 275 271 268 264 260 255 251 240 240
177 184 194 205 209 208 209 204 205 215 228 237 247 270 292 305 314 321 329 336 340 342 344 345 346 345 342 335 335 334 321 314 307 301 292 282 273 268 261 258 252 247 235 233